Hourly Data Report for March 25, 2000

SHERBROOKE A
QUEBEC

45°26'00.000" N
71°41'00.000" W
241.40 m
7028124
71610
YSC

Download Data

Hourly Data (March 2000)
Hourly Data Report for March 25, 2000
TIME
LST
Temp Definition
°C
Dew Point Definition
°C
Rel Hum Definition
%
Precip. Amount Definition
mm

Wind Dir Definition
10's deg

Wind Spd Definition
km/h
Visibility Definition
km
Stn Press Definition
kPa
Hmdx Definition


Wind Chill Definition


Weather Definition


00:00 -2.2 -4.1 87     0 15.0 99.05      
01:00 -3.7 -4.4 95     0 15.0 99.05      
02:00 -3.7 -4.5 94   8 6 15.0 98.92   -6  
03:00 -3.2 -4.5 91   3 4 15.0 98.88   -5  
04:00 -3.2 -4.6 90     0 15.0 98.82      
05:00 -3.9 -4.9 93   6 6 15.0 98.72   -7  
06:00 -3.9 -5.0 92   7 6 15.0 98.69   -7  
07:00 -1.7 -3.6 87   7 9 15.0 98.65   -5  
08:00 2.6 -2.5 69   10 11 24.1 98.49     Mostly Cloudy
09:00 7.2 -1.1 56     0 24.1 98.42     Mostly Cloudy
10:00 10.0 -3.8 38   17 19 24.1 98.29     Mostly Cloudy
11:00 12.1 -3.0 35   17 13 24.1 98.16     Mostly Cloudy
12:00 13.5 -1.8 35   17 20 24.1 97.99     Mostly Cloudy
13:00 13.2 -0.5 39   19 19 24.1 97.86     Cloudy
14:00 12.1 -0.9 41   16 15 24.1 97.76     Rain Showers
15:00 10.3 2.2 57   14 11 24.1 97.66     Rain Showers
16:00 10.8 -0.2 46   19 7 24.1 97.66     Cloudy
17:00 7.5 4.6 82   19 13 19.3 97.66     Rain Showers
18:00 6.5 5.3 92   12 13 15.0 97.56      
19:00 5.5 4.8 95   9 7 15.0 97.49      
20:00 3.9 3.3 96   8 6 15.0 97.40      
21:00 4.2 3.3 94   9 6 15.0 97.30      
22:00 2.9 2.7 99   7 4 11.3 97.23      
23:00 4.4 3.8 96   27 4 11.3 97.26      

Notes on Data Quality.

Legend

  • E = Estimated
  • M = Missing
  • NA = Not Available*
  • [empty] = Indicates an unobserved value
Date modified: